Weather Roundup
Issued by NWS Corpus Christi, TX

Home | Current Version | Previous Version | Text Only | Print | Product List | Glossary On
Versions: 1 2 3 4 5 6 7 8 9 10 11 12 13 14 15 16 17 18 19 20 21 22 23 24 25 26 27 28 29 30 31 32 33 34 35 36 37 38 39 40 41 42 43 44 45 46 47 48 49 50
000
ASUS44 KCRP 051710
HRRCRP

SOUTH TEXAS REGIONAL WEATHER ROUNDUP
NATIONAL WEATHER SERVICE CORPUS CHRISTI TX
1200 PM CDT THU MAY 05 2016


TXZ229>244-051800-
...CORPUS CHRISTI AREA OBSERVATIONS...

CITY           SKY/WX    TMP DP  RH WIND       PRES   REMARKS
CORPUS CHRISTI PTSUNNY   84  55  36 NW6       30.06F
NAS CORPUS CHR MOSUNNY   83  63  50 CALM      30.06F
ROCKPORT       SUNNY     84  52  33 W8        30.06F
KINGSVILLE NAS MOSUNNY   85  59  41 VRB3      30.06F
ALICE          SUNNY     87  51  28 NE8       30.06F
FALFURRIAS     SUNNY     88  46  23 CALM      30.04F
$$

...VICTORIA AREA OBSERVATIONS...

CITY           SKY/WX    TMP DP  RH WIND       PRES   REMARKS
VICTORIA       SUNNY     84  52  33 W7        30.06F
BEEVILLE       FAIR      86  55  34 NW5       30.07S
PLEASANTON     SUNNY     84  47  27 NE5       30.08F
SAN ANTONIO    MOSUNNY   81  50  33 VRB3      30.10S
$$

...LAREDO AREA OBSERVATIONS...

CITY           SKY/WX    TMP DP  RH WIND       PRES   REMARKS
LAREDO         SUNNY     85  55  35 CALM      30.07F
COTULLA        SUNNY     86  44  23 E3        30.08F
DEL RIO        MOSUNNY   81  48  31 SE7       30.10F
MCALLEN        SUNNY     91  51  25 VRB5      30.05F
HEBBRONVILLE   SUNNY     89  42  19 NE9       30.07F
$$

...OTHER TEXAS OBSERVATIONS...

CITY           SKY/WX    TMP DP  RH WIND       PRES   REMARKS
BROWNSVILLE    SUNNY     85  58  39 SW8       30.06F
HOUSTON        MOSUNNY   79  50  36 VRB3      30.04F
COL. STATION   SUNNY     80  49  33 N7        30.07F
AUSTIN         MOSUNNY   82  55  39 N8        30.08S
WACO           SUNNY     79  46  31 NE7       30.09F
FORT WORTH     MOSUNNY   77  41  27 VRB5      30.10F
WICHITA FALLS  SUNNY     76  45  33 MISG      30.12F
LUBBOCK        MOSUNNY   82  29  14 SW10      30.15S
EL PASO        PTSUNNY   80  23  12 SE14      30.12F
$$

...MARINE OBSERVATIONS...

STATION/POSITION TIME  SKY/WX   TEMP    WIND        PRES    VSBY  WAVE   SWELL
                                AIR SEA DIR/SP/G                  HT/PER HT/PER
                 (UTC)          (F)     (DEG/KT/KT) (MB)    (MI)  (FT/S) (FT/S)
PORT ARANSAS     1700            79 77  240/  9/ 11 1018.7F
BUOY 90 E PORT A 1650            74 76  280/ 16/ 17 1017.5F         3/ 5
BUOY 45 SE BAFFI 1650            74 74  260/  8/  8 1018.0S         2/ 5   2/ 5
BUOY 200 E PT IS 1650                                 N/A           2/ 4
BUOY 15 E GALVES 1650            73 76  360/  8/ 10 1016.5S         2/ 4   2/ 4
$$




USA.gov is the U.S. government's official web portal to all federal, state and local government web resources and services.